sat.trackr.live / text

‹ back to catalog

STARLINK-34384

NORAD 64312 · 2025-123X

PAYLOAD ACTIVE UNKNOWN

§ Identity

Operator
Country
US
Launch date
2025-06-08
Launch site
AFWTR
Launch vehicle
Mass (kg)
RCS (m²)

Purposes: comms

External: N2YO · Heavens-Above · Gunter

§ Orbital elements

Epoch: 2026-05-25T00:58:03.756000Z

Period
96.11 min
Inclination
70.0018°
Eccentricity
0.0002580
Mean motion
14.98334407 rev/d
Perigee alt
570.2 km
Apogee alt
573.8 km
Semi-major
6,950.2 km
B*
3.9736e-4
RAAN
2.0112°
Arg perigee
271.3971°
Mean anomaly
88.6892°
Rev number
5,305

§ Raw data

STARLINK-343841 64312U 25123X   26145.04032125  .00004652  00000+0  39736-3 0  99912 64312  70.0018   2.0112 0002580 271.3971  88.6892 14.98334407 53052

JSON: /api/v1/satellites/64312 · /tle

For live sub-satellite position, see the globe view (requires WebGL).

§ Visibility from observer

Set your observer location to see the next 7 days of passes ≥ 10°. The values pass through the URL so the page stays shareable.

No JS? Fill the form by hand. The geolocation button needs JavaScript.